Location: Killam
(52.7910°N, 111.8608°W)
Time: 12:55:07
(UTC+00:00)

METEOR M2 - Pass Details

Date: 17 March 2026
Orbit: 817 x 824 km, 98.5° (Epoch: 14 April)

Event Time Altitude Azimuth Distance (km) Brightness Sun altitude
Rises 10:43:09 0° 23° (NNE) 3,374 ? -25.5°
Reaches altitude 10° 10:46:02 10° 39° (NE) 2,436 ? -25.2°
Maximum altitude 10:50:13 23° 90° (E) 1,711 ? -24.7°
Drops below altitude 10° 10:54:23 10° 141° (SE) 2,421 ? -24.1°
Sets 10:57:14 0° 156° (SSE) 3,348 ? -23.8°
